Fort Worth, TX

6:14 PM CDT on April 28, 2017 (GMT -0500)
Fort Worth Meacham International

Weather History for KFTW - April, 2013

Change the Weather History Date:

Monday, April 29, 2013

  Actual Average Record
Temperature  
Mean Temperature 72 °F -  
Max Temperature 86 °F 78 °F 93 °F (2002)
Min Temperature 61 °F 56 °F 43 °F (1998)
Cooling Degree Days 8    
Growing Degree Days 22 (Base 50)    
Moisture  
Dew Point 60 °F    
Average Humidity 68    
Maximum Humidity 97    
Minimum Humidity 37    
Precipitation  
Precipitation 0.00 in - - ()
Sea Level Pressure  
Sea Level Pressure 29.83 in    
Wind  
Wind Speed 11 mph (SSE)    
Max Wind Speed 20 mph    
Max Gust Speed 24 mph    
Visibility 10 miles    
Events      
Averages and records for this station are not official NWS values.
T = Trace of Precipitation, MM = Missing Value Source: NWS Daily Summary

Daily Weather History Graph

Daily Weather History Graph

Search for Another Location

Airport or City:

Trip Planner

Search our weather history database for the weather conditions in past years. The results will help you decide how hot, cold, wet, or windy it might be!

Date:

Astronomy

Apr. 29, 2013 Rise Set
Actual Time 6:43 AM CDT 8:10 PM CDT
Civil Twilight 6:17 AM CDT 8:36 PM CDT
Nautical Twilight 5:46 AM CDT 9:07 PM CDT
Astronomical Twilight 5:13 AM CDT 9:40 PM CDT
Moon No Moon Rise 10:11 AM CDT (4/29)
Length of Visible Light 14h 18m
Length of Day
13h 26m
Waning Gibbous, 80% of the Moon is Illuminated
Apr 29
Waning Gibbous
May 2
Last Quarter
May 9
New
May 17
First Quarter
May 24
Full

Hourly Weather History & Observations

Time (CDT) Temp. Heat Index Dew Point Humidity Pressure Visibility Wind Dir Wind Speed Gust Speed Precip Events Conditions
12:53 AM 68.0 °F - 62.1 °F 81% 29.86 in 10.0 mi South 9.2 mph - N/A   Clear
1:53 AM 66.9 °F - 61.0 °F 81% 29.85 in 10.0 mi South 11.5 mph 18.4 mph N/A   Clear
2:53 AM 68.0 °F - 61.0 °F 78% 29.83 in 10.0 mi SSW 10.4 mph - N/A   Clear
3:53 AM 66.0 °F - 61.0 °F 84% 29.83 in 10.0 mi SSW 8.1 mph - N/A   Clear
4:53 AM 63.0 °F - 61.0 °F 93% 29.85 in 10.0 mi SSE 5.8 mph - N/A   Clear
5:53 AM 62.1 °F - 60.1 °F 93% 29.85 in 10.0 mi South 5.8 mph - N/A   Clear
6:53 AM 61.0 °F - 60.1 °F 97% 29.86 in 9.0 mi SSE 5.8 mph - N/A   Clear
7:53 AM 64.0 °F - 63.0 °F 96% 29.87 in 9.0 mi SSE 6.9 mph - N/A   Clear
8:53 AM 69.1 °F - 64.9 °F 87% 29.88 in 10.0 mi SSW 8.1 mph - N/A   Clear
9:53 AM 73.9 °F - 66.0 °F 76% 29.88 in 10.0 mi South 10.4 mph - N/A   Clear
10:53 AM 77.0 °F - 66.0 °F 69% 29.88 in 10.0 mi South 12.7 mph - N/A   Clear
11:53 AM 80.1 °F 81.9 °F 64.9 °F 60% 29.87 in 10.0 mi South 9.2 mph - N/A   Partly Cloudy
12:53 PM 82.0 °F 83.0 °F 62.1 °F 51% 29.85 in 10.0 mi South 9.2 mph - N/A   Clear
1:53 PM 84.0 °F 84.5 °F 62.1 °F 47% 29.83 in 10.0 mi SSE 11.5 mph 19.6 mph N/A   Clear
2:53 PM - - - N/A% 29.84 in 10.0 mi South 15.0 mph 20.7 mph N/A   Clear
3:05 PM - - - N/A% 29.83 in 10.0 mi SSE 16.1 mph 20.7 mph N/A   Partly Cloudy
3:53 PM 84.9 °F 83.9 °F 57.0 °F 38% 29.79 in 10.0 mi SSE 18.4 mph 24.2 mph N/A   Clear
4:53 PM 82.9 °F 82.1 °F 55.9 °F 39% 29.77 in 10.0 mi SE 18.4 mph - N/A   Clear
5:53 PM 82.0 °F 81.2 °F 53.1 °F 37% 29.76 in 10.0 mi SSE 17.3 mph - N/A   Clear
6:53 PM 81.0 °F 81.0 °F 57.0 °F 44% 29.75 in 10.0 mi SE 19.6 mph - N/A   Clear
7:53 PM 77.0 °F - 59.0 °F 54% 29.77 in 10.0 mi SSE 17.3 mph 24.2 mph N/A   Clear
8:53 PM 75.0 °F - 59.0 °F 57% 29.78 in 10.0 mi SSE 15.0 mph - N/A   Clear
9:53 PM 72.0 °F - 57.9 °F 61% 29.80 in 10.0 mi SSE 13.8 mph - N/A   Clear
10:53 PM 71.1 °F - 57.9 °F 63% 29.80 in 10.0 mi SSE 10.4 mph - N/A   Clear
11:53 PM 70.0 °F - 59.0 °F 68% 29.79 in 10.0 mi South 12.7 mph - N/A   Clear